TimeCDT,TemperatureF,Dew PointF,Humidity,Sea Level PressureIn,VisibilityMPH,Wind Direction,Wind SpeedMPH,Gust SpeedMPH,PrecipitationIn,Events,Conditions,WindDirDegrees,DateUTC
12:54 AM,46.0,43.0,89,30.21,10.0,West,5.8,-,N/A,,Clear,280,2012-10-05 05:54:00
1:54 AM,46.0,43.0,89,30.20,10.0,Calm,Calm,-,0.01,Rain,Light Rain,0,2012-10-05 06:54:00
2:54 AM,46.9,41.0,80,30.22,10.0,West,3.5,-,0.00,,Overcast,270,2012-10-05 07:54:00
3:54 AM,46.0,41.0,83,30.22,10.0,NNW,3.5,-,0.00,Rain,Light Rain,340,2012-10-05 08:54:00
4:54 AM,45.0,39.9,82,30.23,10.0,West,3.5,-,0.01,Rain,Light Rain,280,2012-10-05 09:54:00
5:54 AM,45.0,39.0,80,30.21,10.0,Calm,Calm,-,0.00,,Scattered Clouds,0,2012-10-05 10:54:00
6:54 AM,43.0,39.0,86,30.23,10.0,WNW,3.5,-,N/A,,Clear,290,2012-10-05 11:54:00
7:54 AM,43.0,37.9,82,30.22,10.0,Calm,Calm,-,N/A,,Clear,0,2012-10-05 12:54:00
8:54 AM,44.1,37.0,76,30.23,10.0,Calm,Calm,-,N/A,,Overcast,0,2012-10-05 13:54:00
9:54 AM,45.0,36.0,71,30.25,10.0,West,8.1,-,N/A,,Overcast,270,2012-10-05 14:54:00
10:54 AM,45.0,36.0,71,30.22,10.0,Variable,4.6,-,N/A,,Overcast,0,2012-10-05 15:54:00
11:54 AM,45.0,35.1,68,30.20,10.0,WNW,5.8,-,0.00,Rain,Light Rain,300,2012-10-05 16:54:00
12:54 PM,46.0,37.0,71,30.18,10.0,NNW,5.8,-,0.01,Rain,Light Rain,330,2012-10-05 17:54:00
1:54 PM,45.0,36.0,71,30.19,10.0,West,6.9,-,0.00,,Overcast,280,2012-10-05 18:54:00
2:54 PM,46.0,35.1,66,30.17,10.0,WNW,5.8,-,0.00,,Overcast,290,2012-10-05 19:54:00
3:54 PM,46.0,33.1,61,30.18,10.0,WNW,9.2,-,0.00,Rain,Light Rain,300,2012-10-05 20:54:00
4:54 PM,44.1,33.1,65,30.18,10.0,NW,8.1,-,0.00,Rain,Light Rain,310,2012-10-05 21:54:00
5:54 PM,42.1,35.1,76,30.18,10.0,WNW,5.8,-,0.00,,Overcast,300,2012-10-05 22:54:00
6:54 PM,42.1,34.0,73,30.14,10.0,SSW,4.6,-,N/A,,Overcast,200,2012-10-05 23:54:00
7:54 PM,43.0,34.0,71,30.17,10.0,WNW,4.6,-,N/A,,Overcast,290,2012-10-06 00:54:00
8:54 PM,42.1,33.1,70,30.19,10.0,West,8.1,-,N/A,,Overcast,280,2012-10-06 01:54:00
9:54 PM,39.0,33.1,79,30.18,10.0,West,8.1,-,N/A,,Clear,270,2012-10-06 02:54:00
10:54 PM,37.0,32.0,82,30.19,10.0,West,8.1,-,N/A,,Clear,270,2012-10-06 03:54:00
11:54 PM,37.0,30.9,79,30.18,10.0,West,5.8,-,N/A,,Clear,280,2012-10-06 04:54:00